Zurück zum Katalog

FENGYUN 1C DEB

AktivSSO
NORAD 30547·DEBRIS·🇨🇳 China

Gestartet May 10, 1999 von Taiyuan Satellite Launch Center

Loading…

Nächste Überflüge (nächste 24 Stunden)

TLE

AktuellSource: Space-Track

Epoche: Sep 14, 2026, 08:38 UTC

1 30547U 99025AKM 26257.36018646  .00000344  00000-0  12260-3 0  9995
2 30547  98.8754 114.9322 0096118 123.8942  48.2125 14.38094032 26811

Verfolge FENGYUN 1C DEB in Echtzeit mit AllMySat

Download on the App Store